Rakoskert, Hungary

11:03 AM CET on February 20, 2017 (GMT +0100)
Ferihegy

Weather History for LHBP - July, 2013

Change the Weather History Date:

Saturday, July 13, 2013

  Actual Average Record
Temperature  
Mean Temperature 68 °F -  
Max Temperature 78 °F 78 °F 93 °F (2002)
Min Temperature 57 °F 57 °F 50 °F (1996)
Cooling Degree Days 2    
Growing Degree Days 18 (Base 50)    
Moisture  
Dew Point 51 °F    
Average Humidity 58    
Maximum Humidity 82    
Minimum Humidity 34    
Precipitation  
Precipitation 0.00 in - - ()
Sea Level Pressure  
Sea Level Pressure 30.05 in    
Wind  
Wind Speed 10 mph ()    
Max Wind Speed 21 mph    
Max Gust Speed -    
Visibility 6.2 miles    
Events      
Averages and records for this station are not official NWS values.
T = Trace of Precipitation, MM = Missing Value Source: Averaged Metar Reports

Daily Weather History Graph

Daily Weather History Graph

Search for Another Location

Airport or City:

Trip Planner

Search our weather history database for the weather conditions in past years. The results will help you decide how hot, cold, wet, or windy it might be!

Date:

Astronomy

Jul. 13, 2013 Rise Set
Actual Time 4:59 AM CEST 8:37 PM CEST
Civil Twilight 4:20 AM CEST 9:16 PM CEST
Nautical Twilight 3:28 AM CEST 10:08 PM CEST
Astronomical Twilight 2:16 AM CEST 11:19 PM CEST
Moon 10:22 AM CEST (7/13) 10:42 PM CEST (7/13)
Length of Visible Light 16h 55m
Length of Day
15h 38m
Waxing Crescent, 23% of the Moon is Illuminated
Jul 13
Waxing Crescent
Jul 16
First Quarter
Jul 22
Full
Jul 29
Last Quarter
Aug 6
New

Hourly Weather History & Observations

Time (CEST) Temp. Dew Point Humidity Pressure Visibility Wind Dir Wind Speed Gust Speed Precip Events Conditions
12:00 AM 64.4 °F 53.6 °F 68% 30.04 in - West 8.1 mph - N/A   Clear
12:30 AM 62.6 °F 51.8 °F 68% 30.04 in - West 9.2 mph - N/A   Clear
1:00 AM 62.6 °F 51.8 °F 68% 30.06 in - NW 4.6 mph - N/A   Clear
1:30 AM 59.0 °F 51.8 °F 77% 30.04 in - WNW 9.2 mph - N/A   Clear
2:00 AM 59.0 °F 50.0 °F 72% 30.04 in - NW 8.1 mph - N/A   Clear
2:30 AM 59.0 °F 51.8 °F 77% 30.04 in - NNW 8.1 mph - N/A   Clear
3:00 AM 59.0 °F 51.8 °F 77% 30.04 in - NW 6.9 mph - N/A   Clear
3:30 AM 59.0 °F 51.8 °F 77% 30.04 in - NW 5.8 mph - N/A   Clear
4:00 AM 57.2 °F 51.8 °F 82% 30.04 in - NW 6.9 mph - N/A   Clear
4:30 AM 57.2 °F 51.8 °F 82% 30.04 in - NNW 8.1 mph - N/A   Clear
5:00 AM 57.2 °F 51.8 °F 82% 30.04 in - North 5.8 mph - N/A   Clear
5:30 AM 59.0 °F 53.6 °F 82% 30.04 in - West 5.8 mph - N/A   Clear
6:00 AM 60.8 °F 55.4 °F 82% 30.04 in - West 9.2 mph - N/A   Clear
6:30 AM 62.6 °F 53.6 °F 72% 30.04 in - WNW 10.4 mph - N/A   Clear
7:00 AM 62.6 °F 53.6 °F 72% 30.04 in - WNW 12.7 mph - N/A   Clear
7:30 AM 64.4 °F 53.6 °F 68% 30.06 in - WNW 12.7 mph - N/A   Clear
8:00 AM 66.2 °F 53.6 °F 64% 30.06 in - WNW 11.5 mph - N/A   Clear
8:30 AM 68.0 °F 53.6 °F 60% 30.06 in - WNW 12.7 mph - N/A   Clear
9:00 AM 69.8 °F 51.8 °F 53% 30.06 in - West 15.0 mph - N/A   Clear
9:30 AM 71.6 °F 51.8 °F 50% 30.06 in 6.2 mi WNW 16.1 mph - N/A   Partly Cloudy
10:00 AM 71.6 °F 51.8 °F 50% 30.06 in 6.2 mi West 15.0 mph - N/A   Partly Cloudy
10:30 AM 71.6 °F 51.8 °F 50% 30.06 in 6.2 mi WNW 15.0 mph - N/A   Partly Cloudy
11:00 AM 73.4 °F 51.8 °F 47% 30.06 in - West 16.1 mph - N/A   Clear
11:30 AM 73.4 °F 51.8 °F 47% 30.06 in - WNW 20.7 mph - N/A   Clear
12:00 PM 75.2 °F 50.0 °F 41% 30.06 in 6.2 mi WNW 19.6 mph - N/A   Scattered Clouds
12:30 PM 75.2 °F 51.8 °F 44% 30.04 in - WNW 15.0 mph - N/A   Clear
1:00 PM 75.2 °F 48.2 °F 38% 30.04 in - West 16.1 mph - N/A   Clear
1:30 PM 77.0 °F 48.2 °F 36% 30.04 in - West 17.3 mph - N/A   Clear
2:00 PM 78.8 °F 48.2 °F 34% 30.04 in - WNW 17.3 mph - N/A   Clear
2:30 PM 75.2 °F 51.8 °F 44% 30.04 in - WNW 18.4 mph - N/A   Clear
3:00 PM 75.2 °F 50.0 °F 41% 30.04 in - WNW 18.4 mph - N/A   Clear
3:30 PM 73.4 °F 51.8 °F 47% 30.04 in - NW 17.3 mph - N/A   Clear
4:00 PM 73.4 °F 51.8 °F 47% 30.04 in - WNW 16.1 mph - N/A   Clear
4:30 PM 73.4 °F 48.2 °F 41% 30.04 in - WNW 17.3 mph - N/A   Clear
5:00 PM 73.4 °F 50.0 °F 44% 30.04 in - WNW 15.0 mph - N/A   Clear
5:30 PM 75.2 °F 50.0 °F 41% 30.04 in - West 13.8 mph - N/A   Clear
6:00 PM 75.2 °F 50.0 °F 41% 30.04 in - WNW 13.8 mph - N/A   Clear
6:30 PM 73.4 °F 50.0 °F 44% 30.04 in - WNW 16.1 mph - N/A   Clear
7:00 PM 75.2 °F 50.0 °F 41% 30.04 in - WNW 13.8 mph - N/A   Clear
7:30 PM 71.6 °F 50.0 °F 46% 30.04 in - WNW 12.7 mph - N/A   Clear
8:00 PM 71.6 °F 50.0 °F 46% 30.04 in - WNW 12.7 mph - N/A   Clear
8:30 PM 69.8 °F 50.0 °F 49% 30.04 in - WNW 10.4 mph - N/A   Clear
9:00 PM 68.0 °F 50.0 °F 52% 30.04 in - West 8.1 mph - N/A   Clear
9:30 PM 66.2 °F 50.0 °F 56% 30.04 in - West 4.6 mph - N/A   Clear
10:00 PM 62.6 °F 50.0 °F 63% 30.04 in - WNW 4.6 mph - N/A   Clear
10:30 PM 60.8 °F 50.0 °F 68% 30.06 in - NW 4.6 mph - N/A   Clear
11:00 PM 62.6 °F 51.8 °F 68% 30.06 in - NW 6.9 mph - N/A   Clear
11:30 PM 59.0 °F 51.8 °F 77% 30.06 in - NNW 4.6 mph - N/A   Clear